COSMOS 2251 DEB, 33944

Orbit data source: Space-Track

COSMOS 2251 DEB, 33944 is space debris in LEO originally from a launch on Wed, 16 Jun 1993 UTC launched from the Plesetsk Missile And Space Complex (PKMTR). The debris from Iridium 33, an American commercial communications satellite, has been tracked extensively since its accidental collision with the defunct Russian satellite Cosmos 2251 in 2009. This event, occurring at high speed in low Earth orbit (LEO), generated thousands of pieces of space debris, significantly increasing the risk of further collisions. The Iridium 33 debris cloud has impacted space traffic management and orbital debris mitigation strategies, making it a subject of ongoing study in space situational awareness.

Loading next visibility...
Identifier
33944, 1993-036EZ
Orbit
LEO
Country
Flag of CISCIS
Related business
Manufacturer
Unknown
Mission
Spacecraft
Bus & Motor
Unknown
Mass
Unknown
Launch date (UTC)
1993-06-16 (33 years ago)
Launch vehicle
Unknown
Launch site
Plesetsk Missile And Space Complex (PKMTR)
Object type
Payload
Rocket body
Debris
Shape & HBR
Unknown shape, 0.1 m
Radar Cross Section
Medium (>0.1 m² and <1 m²)

Expand to show TLE details & history
Last TLE update: 7 hours ago

TLE from 7 hours ago
0 COSMOS 2251 DEB
1 33944U 93036EZ  26263.11401155  .00000327  00000-0  10932-3 0  9991
2 33944  74.0402 151.0333 0113331 182.6254 328.9024 14.37771745920711
Epoch: 2026-09-20T02:44Z
TLE epoch observation values (Epoch: 2026-09-20T02:44:10.597Z)
Latitude
27.977°
Longitude
-77.71413°
Altitude
699.907 km
Speed
7.545 km/s
True Right ascension
21h 29m 22s
True Declination
27° 50' 01"
Sunlit
Object was in full shadow at epoch
Visualization orbit readout
Latitude
Unknown
Longitude
Unknown
Altitude
Unknown
Speed
Unknown
Apparent Right ascension
Unknown
Apparent Declination
Unknown
Sunlit
N/A
Visualization observer readout
Local Sidereal Time
02:37:12
Azimuth
Unknown
Elevation
Unknown
Doppler factor
Unknown
Orbital elements
Apogee altitude
844.428 km
Perigee altitude
682.555 km
Semi-major axis
7,141.628 km
Eccentricity
0.01133
Inclination
74.0402°
RAAN
151.0333°
Arg. of periapsis
182.6254°
True anomaly
328.22342°
Mean anomaly
328.9024°
Eccentric anomaly
328.56374°
Mean motion
3.59623 °/min
Orbital period
100.1 mins
BSTAR
0.00010932

Documentation

Showing up to 5 results
|